Weather History for KGYI - January, 2014

Change the Weather History Date:

Wednesday, January 1, 2014

  Actual Average (KDFW) Record (KDFW)
Temperature  
Mean Temperature 46 °F 45 °F  
Max Temperature 63 °F 56 °F 83 °F (2006)
Min Temperature 29 °F 35 °F 10 °F (1928)
Degree Days  
Heating Degree Days 18 20  
Month to date heating degree days 20  
Since 1 July heating degree days 932  
Cooling Degree Days 0 0  
Month to date cooling degree days 0  
Year to date cooling degree days 0  
Moisture  
Dew Point 34 °F    
Average Humidity 65    
Maximum Humidity 85    
Minimum Humidity 45    
Precipitation  
Precipitation 0.00 in 0.06 in 1.04 in (1944)
Month to date precipitation 0.06  
Year to date precipitation 0.06  
Snow  
Snow 0.00 in 0.00 in 1.20 in (1985)
Month to date snowfall 0.0  
Since 1 July snowfall 0.3  
Snow Depth -    
Sea Level Pressure  
Sea Level Pressure 30.04 in    
Wind  
Wind Speed 14 mph (SSW)    
Max Wind Speed 28 mph    
Max Gust Speed 33 mph    
Visibility 10 miles    
Events      
T = Trace of Precipitation, MM = Missing Value Source: NWS Daily Summary

Daily Weather History Graph

Daily Weather History Graph

Search for Another Location

Airport or City:

Trip Planner

Search our weather history database for the weather conditions in past years. The results will help you decide how hot, cold, wet, or windy it might be!

Date:

Astronomy

Jan. 01, 2014 Rise Set
Actual Time 7:31 AM CST 5:29 PM CST
Civil Twilight 7:03 AM CST 5:56 PM CST
Nautical Twilight 6:32 AM CST 6:27 PM CST
Astronomical Twilight 6:02 AM CST 6:58 PM CST
Moon 7:26 AM CST (1/1) 6:11 PM CST (1/1)
Length of Visible Light 10h 52m
Length of Day
9h 57m
New Moon, 0% of the Moon is Illuminated
Jan 1
New Moon
Jan 7
First Quarter
Jan 15
Full
Jan 23
Last Quarter
Jan 30
New

Hourly Weather History & Observations

Time (CST) Temp. Windchill Dew Point Humidity Pressure Visibility Wind Dir Wind Speed Gust Speed Precip Events Conditions
12:15 AM 39.7 °F 31.9 °F 27.5 °F 62% 30.19 in 10.0 mi South 13.8 mph - N/A   Clear
12:35 AM 39.0 °F 31.8 °F 28.0 °F 65% 30.19 in 10.0 mi South 11.5 mph - N/A   Clear
12:55 AM 38.3 °F 29.7 °F 28.4 °F 68% 30.18 in 10.0 mi SSE 15.0 mph 20.7 mph N/A   Clear
1:15 AM 37.8 °F 30.2 °F 28.6 °F 69% 30.17 in 10.0 mi SSE 11.5 mph - N/A   Clear
1:35 AM 37.2 °F 30.6 °F 29.1 °F 73% 30.17 in 10.0 mi SSE 9.2 mph - N/A   Clear
1:55 AM 36.7 °F 29.9 °F 29.3 °F 75% 30.17 in 10.0 mi SSE 9.2 mph - N/A   Clear
2:15 AM 36.1 °F 29.3 °F 29.8 °F 78% 30.16 in 10.0 mi SSE 9.2 mph - N/A   Clear
2:35 AM 35.6 °F 28.6 °F 29.8 °F 80% 30.15 in 10.0 mi SSE 9.2 mph - N/A   Clear
2:55 AM 35.1 °F 28.6 °F 30.0 °F 82% 30.14 in 10.0 mi SSE 8.1 mph - N/A   Clear
3:15 AM 34.7 °F 26.9 °F 30.2 °F 84% 30.13 in 10.0 mi SSE 10.4 mph - N/A   Clear
3:35 AM 34.7 °F 27.5 °F 30.2 °F 84% 30.12 in 10.0 mi SSE 9.2 mph - N/A   Clear
3:55 AM 34.7 °F 27.5 °F 30.2 °F 84% 30.12 in 10.0 mi SSE 9.2 mph - N/A   Clear
4:15 AM 34.2 °F 27.5 °F 30.2 °F 85% 30.11 in 10.0 mi SSE 8.1 mph - N/A   Clear
4:35 AM 35.2 °F 28.1 °F 30.2 °F 82% 30.10 in 10.0 mi SSE 9.2 mph - N/A   Clear
4:55 AM 36.0 °F 28.5 °F 29.8 °F 78% 30.08 in 10.0 mi SSE 10.4 mph - N/A   Clear
5:15 AM 36.1 °F 27.7 °F 29.8 °F 78% 30.07 in 10.0 mi SSE 12.7 mph - N/A   Clear
5:35 AM 36.0 °F 28.0 °F 30.0 °F 79% 30.06 in 10.0 mi SSE 11.5 mph - N/A   Clear
5:55 AM 36.0 °F 26.7 °F 30.2 °F 80% 30.06 in 10.0 mi SSE 15.0 mph - N/A   Clear
6:15 AM 36.7 °F 27.6 °F 30.2 °F 77% 30.06 in 10.0 mi SSE 15.0 mph - N/A   Clear
6:35 AM 36.1 °F 27.7 °F 30.4 °F 80% 30.05 in 10.0 mi SSE 12.7 mph - N/A   Clear
6:55 AM 36.1 °F 27.3 °F 30.4 °F 80% 30.05 in 10.0 mi South 13.8 mph - N/A   Clear
7:15 AM 36.1 °F 26.9 °F 30.6 °F 80% 30.05 in 10.0 mi SSE 15.0 mph 20.7 mph N/A   Clear
7:35 AM 35.8 °F 25.4 °F 30.7 °F 82% 30.04 in 10.0 mi SSE 18.4 mph - N/A   Clear
7:55 AM 36.1 °F 26.2 °F 30.9 °F 81% 30.04 in 10.0 mi SSE 17.3 mph 23.0 mph N/A   Clear
8:15 AM 37.6 °F 28.1 °F 31.1 °F 77% 30.03 in 10.0 mi South 17.3 mph 25.3 mph N/A   Clear
8:35 AM 39.2 °F 29.0 °F 31.1 °F 73% 30.02 in 10.0 mi South 21.9 mph 26.5 mph N/A   Clear
8:55 AM 40.8 °F 32.3 °F 31.5 °F 69% 30.02 in 10.0 mi South 17.3 mph 25.3 mph N/A   Clear
9:15 AM 42.8 °F 34.5 °F 32.0 °F 66% 30.02 in 10.0 mi South 18.4 mph 26.5 mph N/A   Clear
9:35 AM 44.2 °F 36.2 °F 32.2 °F 63% 30.02 in 10.0 mi South 19.6 mph 26.5 mph N/A   Clear
9:55 AM 45.3 °F 38.7 °F 32.9 °F 62% 30.02 in 10.0 mi South 15.0 mph - N/A   Clear
10:15 AM 47.5 °F - 34.0 °F 59% 30.02 in 10.0 mi South 16.1 mph - N/A   Clear
10:35 AM 50.4 °F - 35.4 °F 57% 30.02 in 10.0 mi South 16.1 mph 19.6 mph N/A   Clear
10:55 AM 52.7 °F - 36.3 °F 54% 30.01 in 10.0 mi SSW 16.1 mph 24.2 mph N/A   Clear
11:15 AM 53.8 °F - 37.0 °F 53% 30.00 in 10.0 mi SSW 19.6 mph 24.2 mph N/A   Clear
11:35 AM 54.0 °F - 37.4 °F 54% 29.98 in 10.0 mi SSW 20.7 mph 26.5 mph N/A   Clear
11:55 AM 54.9 °F - 37.6 °F 52% 29.97 in 10.0 mi SSW 21.9 mph 27.6 mph N/A   Clear
12:15 PM 55.9 °F - 38.3 °F 52% 29.95 in 10.0 mi South 20.7 mph 25.3 mph N/A   Clear
12:35 PM 57.6 °F - 38.8 °F 50% 29.93 in 10.0 mi South 21.9 mph 26.5 mph N/A   Clear
12:55 PM 58.5 °F - 39.4 °F 49% 29.91 in 10.0 mi South 19.6 mph 27.6 mph N/A   Clear
1:15 PM 59.9 °F - 40.1 °F 48% 29.90 in 10.0 mi South 18.4 mph 25.3 mph N/A   Clear
1:35 PM 60.6 °F - 40.6 °F 48% 29.88 in 10.0 mi South 26.5 mph 29.9 mph N/A   Clear
1:55 PM 61.5 °F - 41.0 °F 47% 29.88 in 10.0 mi SSW 19.6 mph 28.8 mph N/A   Clear
2:15 PM 61.7 °F - 41.2 °F 47% 29.88 in 10.0 mi SSW 20.7 mph 25.3 mph N/A   Clear
2:35 PM 62.4 °F - 41.5 °F 46% 29.88 in 10.0 mi SSW 17.3 mph 25.3 mph N/A   Clear
2:55 PM 63.1 °F - 42.3 °F 46% 29.87 in 10.0 mi South 19.6 mph 25.3 mph N/A   Clear
3:15 PM 63.5 °F - 42.3 °F 46% 29.86 in 10.0 mi South 17.3 mph 24.2 mph N/A   Clear
3:35 PM 63.5 °F - 42.6 °F 47% 29.88 in 10.0 mi SSW 18.4 mph 24.2 mph N/A   Clear
3:55 PM 63.5 °F - 42.8 °F 47% 29.89 in 10.0 mi SSW 17.3 mph - N/A   Clear
4:15 PM 63.5 °F - 43.3 °F 48% 29.88 in 10.0 mi South 16.1 mph - N/A   Clear
4:35 PM 63.0 °F - 43.7 °F 49% 29.89 in 10.0 mi South 15.0 mph 20.7 mph N/A   Clear
4:55 PM 62.1 °F - 44.1 °F 52% 29.90 in 10.0 mi SSW 9.2 mph - N/A   Clear
5:15 PM 59.7 °F - 44.1 °F 56% 29.90 in 10.0 mi South 6.9 mph - N/A   Clear
5:35 PM 58.6 °F - 43.9 °F 58% 29.90 in 10.0 mi SSW 6.9 mph - N/A   Clear
5:55 PM 56.8 °F - 43.3 °F 61% 29.92 in 10.0 mi WNW 12.7 mph 17.3 mph N/A   Clear
6:15 PM 55.6 °F - 43.9 °F 65% 29.94 in 10.0 mi WNW 9.2 mph - N/A   Clear
6:35 PM 56.7 °F - 37.2 °F 48% 29.95 in 10.0 mi NW 15.0 mph - N/A   Clear
6:55 PM 55.9 °F - 35.1 °F 45% 29.97 in 10.0 mi NW 11.5 mph - N/A   Clear
7:15 PM 54.9 °F - 34.7 °F 47% 29.99 in 10.0 mi NNW 17.3 mph 26.5 mph N/A   Clear
7:35 PM 52.7 °F - 34.3 °F 50% 30.01 in 10.0 mi NW 18.4 mph 21.9 mph N/A   Clear
7:55 PM 49.5 °F - 34.9 °F 57% 30.04 in 10.0 mi NW 17.3 mph 27.6 mph N/A   Clear
8:15 PM 44.2 °F 35.7 °F 32.2 °F 63% 30.07 in 10.0 mi NW 21.9 mph 29.9 mph N/A   Clear
8:35 PM 41.2 °F 32.1 °F 31.3 °F 68% 30.09 in 10.0 mi NNW 19.6 mph 31.1 mph N/A   Clear
8:55 PM 39.2 °F 30.8 °F 30.9 °F 72% 30.10 in 10.0 mi NW 15.0 mph 20.7 mph N/A   Clear
9:15 PM 38.3 °F 28.1 °F 30.0 °F 72% 30.13 in 10.0 mi NNW 20.7 mph 28.8 mph N/A   Clear
9:35 PM 36.7 °F 26.9 °F 28.8 °F 73% 30.14 in 10.0 mi NW 17.3 mph 24.2 mph N/A   Clear
9:55 PM 34.3 °F 21.3 °F 26.4 °F 73% 30.16 in 10.0 mi NNW 27.6 mph 33.4 mph N/A   Clear
10:15 PM 33.3 °F 23.2 °F 26.1 °F 75% 30.17 in 10.0 mi NNW 15.0 mph 24.2 mph N/A   Clear
10:35 PM 32.0 °F 19.2 °F 25.0 °F 75% 30.18 in 10.0 mi NNW 23.0 mph 28.8 mph N/A   Clear
10:55 PM 31.8 °F 19.3 °F 24.3 °F 74% 30.18 in 10.0 mi NNW 21.9 mph 26.5 mph N/A   Clear
11:15 PM 30.6 °F 17.0 °F 22.8 °F 73% 30.20 in 10.0 mi NNW 24.2 mph 29.9 mph N/A   Clear
11:35 PM 30.0 °F 16.9 °F 22.8 °F 75% 30.21 in 10.0 mi NW 21.9 mph 25.3 mph N/A   Clear
11:55 PM 29.8 °F 17.0 °F 22.1 °F 73% 30.22 in 10.0 mi NNW 20.7 mph 27.6 mph N/A   Clear